Time,TemperatureF,DewpointF,PressureIn,WindDirection,WindDirectionDegrees,WindSpeedMPH,WindSpeedGustMPH,Humidity,HourlyPrecipIn,Conditions,Clouds,dailyrainin,SolarRadiationWatts/m^2,SoftwareType,DateUTC
2013-05-29 00:00:00,56.8,34.6,29.21,NNW,344,0.0,1.0,43,0.00,,SKC,0.00,0.00,VWS V14.01,2013-05-29 06:00:00,
2013-05-29 00:05:00,54.8,36.0,29.23,WNW,288,1.0,7.0,49,0.00,,SKC,0.00,0.00,VWS V14.01,2013-05-29 06:05:00,
2013-05-29 00:11:00,54.6,36.8,29.22,West,281,0.0,10.0,51,0.00,,SKC,0.00,0.00,VWS V14.01,2013-05-29 06:11:00,
2013-05-29 00:15:00,55.2,34.2,29.23,NNW,344,0.0,2.0,45,0.00,,SKC,0.00,0.00,VWS V14.01,2013-05-29 06:15:00,
2013-05-29 00:17:00,54.6,36.8,29.22,West,279,2.0,2.0,51,0.00,,SKC,0.00,0.00,VWS V14.01,2013-05-29 06:17:00,
2013-05-29 00:23:00,54.4,36.7,29.22,WNW,286,4.0,9.0,51,0.00,,SKC,0.00,0.00,VWS V14.01,2013-05-29 06:23:00,
2013-05-29 00:29:00,54.4,37.2,29.22,West,272,0.0,9.0,52,0.00,,SKC,0.00,0.00,VWS V14.01,2013-05-29 06:29:00,
2013-05-29 00:30:00,53.3,33.6,29.24,NNW,344,2.0,3.0,47,0.00,,SKC,0.00,0.00,VWS V14.01,2013-05-29 06:30:00,
2013-05-29 00:36:00,54.3,37.1,29.23,NW,311,0.0,12.0,52,0.00,,SKC,0.00,0.00,VWS V14.01,2013-05-29 06:36:00,
2013-05-29 00:42:00,54.3,37.5,29.23,West,275,3.0,12.0,53,0.00,,SKC,0.00,0.00,VWS V14.01,2013-05-29 06:42:00,
2013-05-29 00:45:00,54.1,35.4,29.25,SSW,204,1.0,10.0,49,0.00,,SKC,0.00,0.00,VWS V14.01,2013-05-29 06:45:00,
2013-05-29 00:48:00,54.3,37.5,29.23,SW,221,4.0,6.0,53,0.00,,SKC,0.00,0.00,VWS V14.01,2013-05-29 06:48:00,
2013-05-29 00:54:00,54.4,37.6,29.24,SW,223,3.0,6.0,53,0.00,,SKC,0.00,0.00,VWS V14.01,2013-05-29 06:54:00,
2013-05-29 01:00:00,54.2,38.9,29.25,SSW,196,12.0,15.0,56,0.00,,SKC,0.00,0.00,VWS V14.01,2013-05-29 07:00:00,
2013-05-29 01:07:00,53.5,39.5,29.25,SE,139,4.0,11.0,59,0.00,,SKC,0.00,0.00,VWS V14.01,2013-05-29 07:07:00,
2013-05-29 01:13:00,52.8,39.7,29.25,SE,142,10.0,17.0,61,0.00,,SKC,0.00,0.00,VWS V14.01,2013-05-29 07:13:00,
2013-05-29 01:15:00,54.6,36.8,29.22,West,279,1.0,10.0,51,0.00,,SKC,0.00,0.00,VWS V14.01,2013-05-29 07:15:00,
2013-05-29 01:19:00,52.4,39.8,29.25,SSW,199,10.0,10.0,62,0.00,,SKC,0.00,0.00,VWS V14.01,2013-05-29 07:19:00,
2013-05-29 01:25:00,52.1,40.3,29.26,South,182,9.0,16.0,64,0.00,,SKC,0.00,0.00,VWS V14.01,2013-05-29 07:25:00,
2013-05-29 01:30:00,54.3,37.1,29.23,WSW,250,2.0,9.0,52,0.00,,SKC,0.00,0.00,VWS V14.01,2013-05-29 07:30:00,
2013-05-29 01:31:00,51.7,41.1,29.26,SSW,205,7.0,16.0,67,0.00,,SKC,0.00,0.00,VWS V14.01,2013-05-29 07:31:00,
2013-05-29 01:37:00,51.2,42.1,29.26,SW,215,5.0,7.0,71,0.00,,SKC,0.00,0.00,VWS V14.01,2013-05-29 07:37:00,
2013-05-29 01:43:00,50.5,42.5,29.26,SW,221,5.0,11.0,74,0.00,,SKC,0.00,0.00,VWS V14.01,2013-05-29 07:43:00,
2013-05-29 01:45:00,54.3,37.5,29.23,West,261,4.0,12.0,53,0.00,,SKC,0.00,0.00,VWS V14.01,2013-05-29 07:45:00,
2013-05-29 01:51:00,49.8,42.2,29.27,SW,230,5.0,5.0,75,0.00,,SKC,0.00,0.00,VWS V14.01,2013-05-29 07:51:00,
2013-05-29 01:57:00,49.3,42.7,29.26,WSW,257,4.0,5.0,78,0.01,,SKC,0.01,0.00,VWS V14.01,2013-05-29 07:57:00,
2013-05-29 02:00:00,54.1,38.8,29.25,South,191,5.0,15.0,56,0.00,,SKC,0.00,0.00,VWS V14.01,2013-05-29 08:00:00,
2013-05-29 02:03:00,49.0,42.8,29.26,WSW,257,0.0,2.0,79,0.01,,SKC,0.01,0.00,VWS V14.01,2013-05-29 08:03:00,
2013-05-29 02:09:00,48.7,42.5,29.26,WSW,258,0.0,3.0,79,0.01,,SKC,0.01,0.00,VWS V14.01,2013-05-29 08:09:00,
2013-05-29 02:15:00,48.4,42.8,29.27,West,266,0.0,3.0,81,0.01,,SKC,0.01,0.00,VWS V14.01,2013-05-29 08:15:00,
2013-05-29 02:22:00,48.1,42.9,29.28,South,190,0.0,3.0,82,0.01,,SKC,0.01,0.00,VWS V14.01,2013-05-29 08:22:00,
2013-05-29 02:28:00,47.4,42.2,29.29,NNW,338,2.0,10.0,82,0.02,,SKC,0.02,0.00,VWS V14.01,2013-05-29 08:28:00,
2013-05-29 02:30:00,51.7,41.1,29.26,SSW,205,7.0,16.0,67,0.00,,SKC,0.00,0.00,VWS V14.01,2013-05-29 08:30:00,
2013-05-29 02:34:00,46.7,41.5,29.31,NW,319,7.0,7.0,82,0.03,,SKC,0.03,0.00,VWS V14.01,2013-05-29 08:34:00,
2013-05-29 02:40:00,46.2,41.6,29.31,NNW,331,3.0,7.0,84,0.05,,SKC,0.05,0.00,VWS V14.01,2013-05-29 08:40:00,
2013-05-29 02:45:00,50.2,42.2,29.27,South,180,4.0,11.0,74,0.00,,SKC,0.00,0.00,VWS V14.01,2013-05-29 08:45:00,
2013-05-29 02:46:00,45.8,41.2,29.30,NNW,331,4.0,7.0,84,0.06,,SKC,0.06,0.00,VWS V14.01,2013-05-29 08:46:00,
2013-05-29 02:52:00,45.3,41.1,29.30,NNE,15,1.0,4.0,85,0.06,,SKC,0.06,0.00,VWS V14.01,2013-05-29 08:52:00,
2013-05-29 02:58:00,45.0,41.1,29.29,NNW,344,0.0,5.0,86,0.07,,SKC,0.07,0.00,VWS V14.01,2013-05-29 08:58:00,
2013-05-29 03:00:00,49.1,42.5,29.26,WSW,257,0.0,5.0,78,0.01,,SKC,0.01,0.00,VWS V14.01,2013-05-29 09:00:00,
2013-05-29 03:04:00,44.8,41.2,29.29,NNW,344,0.0,0.0,87,0.06,,SKC,0.07,0.00,VWS V14.01,2013-05-29 09:04:00,
2013-05-29 03:09:00,44.7,41.1,29.29,NNW,344,0.0,0.0,87,0.06,,SKC,0.07,0.00,VWS V14.01,2013-05-29 09:09:00,
2013-05-29 03:15:00,44.5,40.9,29.29,NNW,344,0.0,0.0,87,0.06,,SKC,0.07,0.00,VWS V14.01,2013-05-29 09:15:00,
2013-05-29 03:21:00,44.4,40.8,29.29,NNW,344,0.0,0.0,87,0.06,,SKC,0.07,0.00,VWS V14.01,2013-05-29 09:21:00,
2013-05-29 03:27:00,44.2,40.9,29.30,NNW,344,0.0,1.0,88,0.06,,SKC,0.07,0.00,VWS V14.01,2013-05-29 09:27:00,
2013-05-29 03:30:00,47.0,41.8,29.31,North,355,4.0,10.0,82,0.02,,SKC,0.02,0.00,VWS V14.01,2013-05-29 09:30:00,
2013-05-29 03:33:00,43.9,40.6,29.30,ENE,58,2.0,6.0,88,0.05,,SKC,0.07,0.00,VWS V14.01,2013-05-29 09:33:00,
2013-05-29 03:39:00,43.6,40.6,29.31,NNE,18,8.0,9.0,89,0.05,,SKC,0.07,0.00,VWS V14.01,2013-05-29 09:39:00,
2013-05-29 03:45:00,43.3,40.3,29.31,NE,51,9.0,9.0,89,0.05,,SKC,0.07,0.00,VWS V14.01,2013-05-29 09:45:00,
2013-05-29 03:51:00,42.9,40.2,29.31,North,5,6.0,10.0,90,0.01,,SKC,0.07,0.00,VWS V14.01,2013-05-29 09:51:00,
2013-05-29 03:57:00,42.8,40.1,29.32,ENE,67,3.0,10.0,90,0.01,,SKC,0.07,0.00,VWS V14.01,2013-05-29 09:57:00,
2013-05-29 04:00:00,44.9,41.0,29.29,NNW,344,0.0,5.0,86,0.07,,SKC,0.07,0.00,VWS V14.01,2013-05-29 10:00:00,
2013-05-29 04:03:00,42.7,40.0,29.33,NE,43,1.0,5.0,90,0.00,,SKC,0.07,0.00,VWS V14.01,2013-05-29 10:03:00,
2013-05-29 04:09:00,42.6,39.9,29.33,NE,40,2.0,7.0,90,0.00,,SKC,0.07,0.00,VWS V14.01,2013-05-29 10:09:00,
2013-05-29 04:15:00,42.6,40.2,29.33,NE,55,0.0,7.0,91,0.00,,SKC,0.07,0.00,VWS V14.01,2013-05-29 10:15:00,
2013-05-29 04:21:00,42.7,40.3,29.33,NE,50,4.0,5.0,91,0.00,,SKC,0.07,0.00,VWS V14.01,2013-05-29 10:21:00,
2013-05-29 04:27:00,42.7,40.3,29.33,NNE,28,0.0,5.0,91,0.00,,SKC,0.07,0.00,VWS V14.01,2013-05-29 10:27:00,
2013-05-29 04:30:00,44.1,40.8,29.30,NNW,344,0.0,3.0,88,0.06,,SKC,0.07,0.00,VWS V14.01,2013-05-29 10:30:00,
2013-05-29 04:33:00,42.7,40.3,29.33,NNE,28,0.0,0.0,91,0.01,,SKC,0.08,0.00,VWS V14.01,2013-05-29 10:33:00,
2013-05-29 04:39:00,42.7,40.3,29.33,NNE,28,0.0,2.0,91,0.01,,SKC,0.08,0.00,VWS V14.01,2013-05-29 10:39:00,
2013-05-29 04:45:00,42.7,40.3,29.33,NNE,28,0.0,2.0,91,0.01,,SKC,0.08,0.00,VWS V14.01,2013-05-29 10:45:00,
2013-05-29 04:51:00,42.8,40.4,29.33,NNE,28,0.0,1.0,91,0.01,,SKC,0.08,0.00,VWS V14.01,2013-05-29 10:51:00,
2013-05-29 04:58:00,42.8,40.4,29.33,NNE,28,0.0,1.0,91,0.01,,SKC,0.08,0.00,VWS V14.01,2013-05-29 10:58:00,
2013-05-29 05:00:00,42.7,40.0,29.32,NE,53,2.0,10.0,90,0.01,,SKC,0.07,0.00,VWS V14.01,2013-05-29 11:00:00,
2013-05-29 05:04:00,42.8,40.4,29.35,NNE,28,0.0,1.0,91,0.01,,SKC,0.08,0.00,VWS V14.01,2013-05-29 11:04:00,
2013-05-29 05:10:00,42.7,40.5,29.35,NNE,28,0.0,2.0,92,0.01,,SKC,0.08,0.00,VWS V14.01,2013-05-29 11:10:00,
2013-05-29 05:15:00,42.6,40.2,29.33,NE,55,0.0,7.0,91,0.00,,SKC,0.07,0.00,VWS V14.01,2013-05-29 11:15:00,
2013-05-29 05:16:00,42.6,40.4,29.35,NNE,28,0.0,2.0,92,0.01,,SKC,0.08,0.00,VWS V14.01,2013-05-29 11:16:00,
2013-05-29 05:22:00,42.5,40.3,29.35,NNE,28,0.0,2.0,92,0.01,,SKC,0.08,0.00,VWS V14.01,2013-05-29 11:22:00,
2013-05-29 05:28:00,42.5,40.3,29.35,NNE,28,0.0,2.0,92,0.01,,SKC,0.08,0.00,VWS V14.01,2013-05-29 11:28:00,
2013-05-29 05:30:00,42.7,40.3,29.33,NNE,28,0.0,5.0,91,0.01,,SKC,0.08,0.00,VWS V14.01,2013-05-29 11:30:00,
2013-05-29 05:34:00,42.4,40.2,29.35,NNE,28,0.0,0.0,92,0.00,,SKC,0.08,0.00,VWS V14.01,2013-05-29 11:34:00,
2013-05-29 05:40:00,42.4,40.2,29.35,NNE,28,0.0,0.0,92,0.00,,SKC,0.08,0.00,VWS V14.01,2013-05-29 11:40:00,
2013-05-29 05:45:00,42.7,40.3,29.33,NNE,28,0.0,2.0,91,0.01,,SKC,0.08,0.00,VWS V14.01,2013-05-29 11:45:00,
2013-05-29 05:46:00,42.3,40.2,29.35,NNE,28,0.0,0.0,92,0.00,,SKC,0.08,0.00,VWS V14.01,2013-05-29 11:46:00,
2013-05-29 05:52:00,42.2,39.8,29.35,NNE,28,0.0,0.0,91,0.00,,SKC,0.08,0.00,VWS V14.01,2013-05-29 11:52:00,
2013-05-29 05:58:00,42.1,39.7,29.35,NNE,28,0.0,0.0,91,0.00,,SKC,0.08,5.00,VWS V14.01,2013-05-29 11:58:00,
2013-05-29 06:00:00,42.8,40.4,29.33,NNE,28,0.0,1.0,91,0.01,,SKC,0.08,0.00,VWS V14.01,2013-05-29 12:00:00,
2013-05-29 06:04:00,42.0,39.6,29.36,NNE,28,0.0,1.0,91,0.00,,SKC,0.08,5.00,VWS V14.01,2013-05-29 12:04:00,
2013-05-29 06:10:00,41.8,39.4,29.36,NNE,28,0.0,1.0,91,0.00,,SKC,0.08,7.00,VWS V14.01,2013-05-29 12:10:00,
2013-05-29 06:15:00,42.6,40.4,29.35,NNE,28,0.0,2.0,92,0.01,,SKC,0.08,0.00,VWS V14.01,2013-05-29 12:15:00,
2013-05-29 06:16:00,41.6,39.2,29.37,NNE,28,0.0,1.0,91,0.00,,SKC,0.08,11.00,VWS V14.01,2013-05-29 12:16:00,
2013-05-29 06:21:00,41.5,39.1,29.37,NNE,28,0.0,0.0,91,0.00,,SKC,0.08,11.00,VWS V14.01,2013-05-29 12:21:00,
2013-05-29 06:27:00,41.4,39.0,29.37,NNE,28,0.0,0.0,91,0.00,,SKC,0.08,12.00,VWS V14.01,2013-05-29 12:27:00,
2013-05-29 06:30:00,42.5,40.3,29.35,NNE,28,0.0,2.0,92,0.01,,SKC,0.08,0.00,VWS V14.01,2013-05-29 12:30:00,
2013-05-29 06:33:00,41.3,38.9,29.38,NNE,28,0.0,0.0,91,0.00,,SKC,0.08,14.00,VWS V14.01,2013-05-29 12:33:00,
2013-05-29 06:39:00,41.1,38.7,29.37,NNE,28,0.0,0.0,91,0.00,,SKC,0.08,19.00,VWS V14.01,2013-05-29 12:39:00,
2013-05-29 06:45:00,40.9,38.5,29.37,NNE,28,0.0,2.0,91,0.00,,SKC,0.08,26.00,VWS V14.01,2013-05-29 12:45:00,
2013-05-29 06:51:00,40.9,38.8,29.37,NNE,28,0.0,1.0,92,0.00,,SKC,0.08,35.00,VWS V14.01,2013-05-29 12:51:00,
2013-05-29 06:57:00,40.8,38.7,29.37,ESE,109,0.0,4.0,92,0.00,,SKC,0.08,67.00,VWS V14.01,2013-05-29 12:57:00,
2013-05-29 07:00:00,42.0,39.8,29.35,NNE,28,0.0,0.0,92,0.00,,SKC,0.08,5.00,VWS V14.01,2013-05-29 13:00:00,
2013-05-29 07:03:00,40.8,38.7,29.39,ESE,109,0.0,3.0,92,0.00,,SKC,0.08,84.00,VWS V14.01,2013-05-29 13:03:00,
2013-05-29 07:09:00,41.0,38.9,29.39,ESE,109,0.0,3.0,92,0.00,,SKC,0.08,107.00,VWS V14.01,2013-05-29 13:09:00,
2013-05-29 07:15:00,41.6,39.2,29.37,NNE,28,0.0,1.0,91,0.00,,SKC,0.08,11.00,VWS V14.01,2013-05-29 13:15:00,
2013-05-29 07:16:00,41.4,39.5,29.39,ESE,109,3.0,4.0,93,0.00,,SKC,0.08,63.00,VWS V14.01,2013-05-29 13:16:00,
2013-05-29 07:22:00,41.7,39.8,29.37,ESE,110,0.0,3.0,93,0.00,,SKC,0.08,69.00,VWS V14.01,2013-05-29 13:22:00,
2013-05-29 07:28:00,42.0,40.1,29.37,ESE,109,0.0,3.0,93,0.00,,SKC,0.08,93.00,VWS V14.01,2013-05-29 13:28:00,
2013-05-29 07:30:00,41.3,38.9,29.37,NNE,28,0.0,0.0,91,0.00,,SKC,0.08,14.00,VWS V14.01,2013-05-29 13:30:00,
2013-05-29 07:34:00,42.2,40.6,29.37,ESE,109,0.0,0.0,94,0.00,,SKC,0.08,158.00,VWS V14.01,2013-05-29 13:34:00,
2013-05-29 07:41:00,42.9,41.3,29.37,ESE,109,0.0,0.0,94,0.00,,SKC,0.08,188.00,VWS V14.01,2013-05-29 13:41:00,
2013-05-29 07:45:00,40.9,38.5,29.37,NNE,28,0.0,2.0,91,0.00,,SKC,0.08,26.00,VWS V14.01,2013-05-29 13:45:00,
2013-05-29 07:46:00,43.3,41.7,29.37,ESE,109,0.0,2.0,94,0.00,,SKC,0.08,135.00,VWS V14.01,2013-05-29 13:46:00,
2013-05-29 07:51:00,43.5,41.9,29.36,ESE,109,0.0,0.0,94,0.00,,SKC,0.08,137.00,VWS V14.01,2013-05-29 13:51:00,
2013-05-29 07:57:00,43.9,42.3,29.36,ESE,109,0.0,3.0,94,0.00,,SKC,0.08,125.00,VWS V14.01,2013-05-29 13:57:00,
2013-05-29 08:00:00,40.8,38.7,29.39,ESE,109,3.0,4.0,92,0.00,,SKC,0.08,70.00,VWS V14.01,2013-05-29 14:00:00,
2013-05-29 08:03:00,44.1,42.5,29.39,ESE,109,1.0,2.0,94,0.00,,SKC,0.08,95.00,VWS V14.01,2013-05-29 14:03:00,
2013-05-29 08:10:00,44.2,42.6,29.39,ESE,109,0.0,2.0,94,0.00,,SKC,0.08,127.00,VWS V14.01,2013-05-29 14:10:00,
2013-05-29 08:15:00,41.4,39.5,29.39,ESE,109,3.0,4.0,93,0.00,,SKC,0.08,63.00,VWS V14.01,2013-05-29 14:15:00,
2013-05-29 08:16:00,44.3,42.7,29.39,NNE,30,2.0,5.0,94,0.00,,SKC,0.08,135.00,VWS V14.01,2013-05-29 14:16:00,
2013-05-29 08:22:00,44.5,42.6,29.38,NNE,18,0.0,6.0,93,0.00,,SKC,0.08,174.00,VWS V14.01,2013-05-29 14:22:00,
2013-05-29 08:28:00,44.7,42.8,29.38,NNE,20,4.0,10.0,93,0.00,,SKC,0.08,179.00,VWS V14.01,2013-05-29 14:28:00,
2013-05-29 08:30:00,42.1,40.5,29.37,ESE,110,0.0,3.0,94,0.00,,SKC,0.08,130.00,VWS V14.01,2013-05-29 14:30:00,
2013-05-29 08:34:00,44.8,42.9,29.38,NE,39,9.0,9.0,93,0.00,,SKC,0.08,200.00,VWS V14.01,2013-05-29 14:34:00,
2013-05-29 08:40:00,44.8,42.9,29.38,NNE,29,4.0,10.0,93,0.00,,SKC,0.08,207.00,VWS V14.01,2013-05-29 14:40:00,
2013-05-29 08:45:00,43.3,41.7,29.37,ESE,109,0.0,2.0,94,0.00,,SKC,0.08,135.00,VWS V14.01,2013-05-29 14:45:00,
2013-05-29 08:46:00,44.5,42.0,29.38,North,5,4.0,12.0,91,0.00,,SKC,0.08,127.00,VWS V14.01,2013-05-29 14:46:00,
2013-05-29 08:52:00,44.2,41.7,29.39,NE,35,7.0,11.0,91,0.00,,SKC,0.08,290.00,VWS V14.01,2013-05-29 14:52:00,
2013-05-29 08:58:00,44.4,41.7,29.39,NNW,336,10.0,13.0,90,0.00,,SKC,0.08,267.00,VWS V14.01,2013-05-29 14:58:00,
2013-05-29 09:00:00,44.0,42.4,29.36,ESE,109,0.0,3.0,94,0.00,,SKC,0.08,100.00,VWS V14.01,2013-05-29 15:00:00,
2013-05-29 09:04:00,44.6,41.8,29.41,North,355,6.0,11.0,90,0.00,,SKC,0.08,411.00,VWS V14.01,2013-05-29 15:04:00,
2013-05-29 09:11:00,44.8,41.8,29.41,NNE,15,5.0,11.0,89,0.00,,SKC,0.08,230.00,VWS V14.01,2013-05-29 15:11:00,
2013-05-29 09:15:00,44.4,42.8,29.39,NNE,28,3.0,6.0,94,0.00,,SKC,0.08,137.00,VWS V14.01,2013-05-29 15:15:00,
2013-05-29 09:17:00,44.5,40.9,29.41,NNE,26,10.0,10.0,87,0.00,,SKC,0.08,178.00,VWS V14.01,2013-05-29 15:17:00,
2013-05-29 09:23:00,44.5,40.9,29.41,NNW,348,6.0,10.0,87,0.00,,SKC,0.08,155.00,VWS V14.01,2013-05-29 15:23:00,
2013-05-29 09:30:00,44.8,41.5,29.41,NNE,17,6.0,10.0,88,0.00,,SKC,0.08,153.00,VWS V14.01,2013-05-29 15:30:00,
2013-05-29 09:36:00,44.6,41.3,29.41,NNE,24,3.0,8.0,88,0.00,,SKC,0.08,95.00,VWS V14.01,2013-05-29 15:36:00,
2013-05-29 09:42:00,44.2,40.6,29.41,NNE,13,3.0,10.0,87,0.00,,SKC,0.08,42.00,VWS V14.01,2013-05-29 15:42:00,
2013-05-29 09:45:00,44.5,42.0,29.38,North,5,4.0,12.0,91,0.00,,SKC,0.08,127.00,VWS V14.01,2013-05-29 15:45:00,
2013-05-29 09:48:00,44.0,40.4,29.42,North,355,0.0,4.0,87,0.00,,SKC,0.08,25.00,VWS V14.01,2013-05-29 15:48:00,
2013-05-29 09:54:00,43.8,40.2,29.42,North,360,1.0,4.0,87,0.02,,SKC,0.10,53.00,VWS V14.01,2013-05-29 15:54:00,
2013-05-29 10:00:00,43.6,40.6,29.42,North,10,1.0,4.0,89,0.03,,SKC,0.11,97.00,VWS V14.01,2013-05-29 16:00:00,
2013-05-29 10:05:00,43.6,40.6,29.44,NNW,344,0.0,4.0,89,0.04,,SKC,0.12,100.00,VWS V14.01,2013-05-29 16:05:00,
2013-05-29 10:11:00,43.9,41.5,29.44,NNW,344,0.0,4.0,91,0.05,,SKC,0.13,169.00,VWS V14.01,2013-05-29 16:11:00,
2013-05-29 10:15:00,44.5,40.9,29.40,NNE,22,7.0,12.0,87,0.00,,SKC,0.08,169.00,VWS V14.01,2013-05-29 16:15:00,
2013-05-29 10:18:00,43.9,41.5,29.44,NNW,344,0.0,1.0,91,0.06,,SKC,0.14,153.00,VWS V14.01,2013-05-29 16:18:00,
2013-05-29 10:24:00,44.2,42.0,29.44,WNW,292,2.0,3.0,92,0.06,,SKC,0.14,311.00,VWS V14.01,2013-05-29 16:24:00,
2013-05-29 10:30:00,44.7,42.5,29.42,WNW,290,3.0,5.0,92,0.06,,SKC,0.14,290.00,VWS V14.01,2013-05-29 16:30:00,
2013-05-29 10:36:00,45.5,43.3,29.42,South,185,3.0,5.0,92,0.06,,SKC,0.14,299.00,VWS V14.01,2013-05-29 16:36:00,
2013-05-29 10:42:00,46.5,44.0,29.41,South,178,5.0,10.0,91,0.06,,SKC,0.14,320.00,VWS V14.01,2013-05-29 16:42:00,
2013-05-29 10:45:00,44.1,40.5,29.42,North,360,1.0,10.0,87,0.00,,SKC,0.08,26.00,VWS V14.01,2013-05-29 16:45:00,
2013-05-29 10:49:00,46.9,43.2,29.41,SW,236,6.0,11.0,87,0.06,,SKC,0.14,893.00,VWS V14.01,2013-05-29 16:49:00,
2013-05-29 10:55:00,47.7,43.4,29.41,South,179,10.0,11.0,85,0.06,,SKC,0.14,1079.00,VWS V14.01,2013-05-29 16:55:00,
2013-05-29 11:01:00,48.2,42.0,29.41,SW,216,4.0,15.0,79,0.06,,SKC,0.14,1129.00,VWS V14.01,2013-05-29 17:01:00,
2013-05-29 11:07:00,48.4,41.9,29.42,SSW,205,8.0,14.0,78,0.00,,SKC,0.14,348.00,VWS V14.01,2013-05-29 17:07:00,
2013-05-29 11:14:00,47.8,41.0,29.42,SW,230,6.0,15.0,77,0.00,,SKC,0.14,190.00,VWS V14.01,2013-05-29 17:14:00,
2013-05-29 11:15:00,43.9,41.5,29.44,NNW,344,0.0,4.0,91,0.06,,SKC,0.14,153.00,VWS V14.01,2013-05-29 17:15:00,
2013-05-29 11:20:00,47.3,40.5,29.42,South,171,7.0,10.0,77,0.00,,SKC,0.14,248.00,VWS V14.01,2013-05-29 17:20:00,
2013-05-29 11:26:00,47.4,41.9,29.41,SW,222,3.0,12.0,81,0.00,,SKC,0.14,269.00,VWS V14.01,2013-05-29 17:26:00,
2013-05-29 11:30:00,44.8,42.3,29.42,West,267,2.0,5.0,91,0.06,,SKC,0.14,299.00,VWS V14.01,2013-05-29 17:30:00,
2013-05-29 11:32:00,47.4,42.2,29.41,SW,225,3.0,4.0,82,0.00,,SKC,0.14,260.00,VWS V14.01,2013-05-29 17:32:00,
2013-05-29 11:38:00,47.7,41.5,29.40,SSW,199,4.0,10.0,79,0.00,,SKC,0.14,216.00,VWS V14.01,2013-05-29 17:38:00,
2013-05-29 11:45:00,48.9,43.7,29.39,West,268,3.0,10.0,82,0.00,,SKC,0.14,1125.00,VWS V14.01,2013-05-29 17:45:00,
2013-05-29 11:51:00,51.3,43.3,29.36,SSW,205,11.0,11.0,74,0.00,,SKC,0.14,1125.00,VWS V14.01,2013-05-29 17:51:00,
2013-05-29 11:57:00,51.0,41.2,29.38,SSW,195,13.0,17.0,69,0.00,,SKC,0.14,130.00,VWS V14.01,2013-05-29 17:57:00,
2013-05-29 12:00:00,48.2,42.0,29.41,SW,216,4.0,15.0,79,0.06,,SKC,0.14,1129.00,VWS V14.01,2013-05-29 18:00:00,
2013-05-29 12:02:00,50.3,41.3,29.40,SSW,203,12.0,16.0,71,0.00,,SKC,0.14,98.00,VWS V14.01,2013-05-29 18:02:00,
2013-05-29 12:08:00,49.2,41.6,29.42,WSW,254,3.0,16.0,75,0.01,,SKC,0.15,113.00,VWS V14.01,2013-05-29 18:08:00,
2013-05-29 12:14:00,48.5,42.3,29.42,West,275,1.0,16.0,79,0.04,,SKC,0.18,155.00,VWS V14.01,2013-05-29 18:14:00,
2013-05-29 12:15:00,47.6,41.7,29.42,SW,234,3.0,15.0,80,0.00,,SKC,0.14,218.00,VWS V14.01,2013-05-29 18:15:00,
2013-05-29 12:20:00,47.9,42.7,29.42,SSW,200,6.0,6.0,82,0.04,,SKC,0.18,135.00,VWS V14.01,2013-05-29 18:20:00,
2013-05-29 12:25:00,47.3,42.4,29.43,SSW,196,3.0,9.0,83,0.05,,SKC,0.19,130.00,VWS V14.01,2013-05-29 18:25:00,
2013-05-29 12:30:00,47.4,42.2,29.41,SW,222,4.0,12.0,82,0.00,,SKC,0.14,250.00,VWS V14.01,2013-05-29 18:30:00,
2013-05-29 12:31:00,47.0,43.0,29.43,SSW,202,8.0,9.0,86,0.05,,SKC,0.19,853.00,VWS V14.01,2013-05-29 18:31:00,
2013-05-29 12:38:00,48.2,44.2,29.40,South,177,9.0,10.0,86,0.05,,SKC,0.19,302.00,VWS V14.01,2013-05-29 18:38:00,
2013-05-29 12:44:00,49.0,44.7,29.39,SW,219,9.0,10.0,85,0.05,,SKC,0.19,1000.00,VWS V14.01,2013-05-29 18:44:00,
2013-05-29 12:45:00,49.8,45.2,29.39,West,267,5.0,10.0,84,0.00,,SKC,0.14,1125.00,VWS V14.01,2013-05-29 18:45:00,
2013-05-29 12:50:00,50.7,45.4,29.37,WSW,239,10.0,12.0,82,0.05,,SKC,0.19,1114.00,VWS V14.01,2013-05-29 18:50:00,
2013-05-29 12:56:00,52.1,44.4,29.36,SW,226,8.0,15.0,75,0.06,,SKC,0.20,283.00,VWS V14.01,2013-05-29 18:56:00,
2013-05-29 13:00:00,50.5,40.7,29.39,SW,218,16.0,17.0,69,0.00,,SKC,0.14,102.00,VWS V14.01,2013-05-29 19:00:00,
2013-05-29 13:01:00,52.5,45.8,29.36,South,182,5.0,15.0,78,0.06,,SKC,0.20,1211.00,VWS V14.01,2013-05-29 19:01:00,
2013-05-29 13:07:00,52.2,44.5,29.40,SSW,197,2.0,11.0,75,0.06,,SKC,0.20,241.00,VWS V14.01,2013-05-29 19:07:00,
2013-05-29 13:13:00,51.6,41.8,29.41,SSW,196,12.0,13.0,69,0.06,,SKC,0.20,167.00,VWS V14.01,2013-05-29 19:13:00,
2013-05-29 13:15:00,48.3,42.1,29.42,SW,220,0.0,16.0,79,0.04,,SKC,0.18,163.00,VWS V14.01,2013-05-29 19:15:00,
2013-05-29 13:19:00,50.5,41.1,29.42,SW,215,8.0,14.0,70,0.02,,SKC,0.20,251.00,VWS V14.01,2013-05-29 19:19:00,
2013-05-29 13:25:00,49.9,41.2,29.43,SSW,209,8.0,14.0,72,0.02,,SKC,0.20,158.00,VWS V14.01,2013-05-29 19:25:00,
2013-05-29 13:30:00,47.0,43.0,29.43,SSW,202,8.0,9.0,86,0.05,,SKC,0.19,853.00,VWS V14.01,2013-05-29 19:30:00,
2013-05-29 13:31:00,49.2,39.8,29.44,SSW,199,14.0,19.0,70,0.02,,SKC,0.20,104.00,VWS V14.01,2013-05-29 19:31:00,
2013-05-29 13:36:00,48.5,39.2,29.44,South,189,16.0,16.0,70,0.01,,SKC,0.20,128.00,VWS V14.01,2013-05-29 19:36:00,
2013-05-29 13:42:00,47.7,39.8,29.45,South,169,12.0,19.0,74,0.01,,SKC,0.20,468.00,VWS V14.01,2013-05-29 19:42:00,
2013-05-29 13:45:00,49.7,45.1,29.40,SW,232,6.0,10.0,84,0.05,,SKC,0.19,1020.00,VWS V14.01,2013-05-29 19:45:00,
2013-05-29 13:49:00,47.7,39.8,29.44,SW,224,11.0,17.0,74,0.01,,SKC,0.20,459.00,VWS V14.01,2013-05-29 19:49:00,
2013-05-29 13:55:00,48.3,40.1,29.44,SW,228,11.0,19.0,73,0.01,,SKC,0.20,432.00,VWS V14.01,2013-05-29 19:55:00,
2013-05-29 14:00:00,52.5,45.8,29.36,South,182,5.0,15.0,78,0.06,,SKC,0.20,1211.00,VWS V14.01,2013-05-29 20:00:00,
2013-05-29 14:01:00,48.1,39.5,29.45,WSW,246,12.0,22.0,72,0.01,,SKC,0.20,151.00,VWS V14.01,2013-05-29 20:01:00,
2013-05-29 14:08:00,47.6,39.4,29.48,South,184,9.0,18.0,73,0.00,,SKC,0.20,79.00,VWS V14.01,2013-05-29 20:08:00,
2013-05-29 14:14:00,46.9,39.7,29.49,SSW,206,10.0,18.0,76,0.01,,SKC,0.21,32.00,VWS V14.01,2013-05-29 20:14:00,
2013-05-29 14:15:00,51.1,41.3,29.42,SSW,211,13.0,15.0,69,0.06,,SKC,0.20,174.00,VWS V14.01,2013-05-29 20:15:00,
2013-05-29 14:20:00,46.1,40.0,29.49,SW,215,6.0,7.0,79,0.03,,SKC,0.23,76.00,VWS V14.01,2013-05-29 20:20:00,
2013-05-29 14:26:00,45.8,40.3,29.49,SSW,210,3.0,10.0,81,0.03,,SKC,0.23,134.00,VWS V14.01,2013-05-29 20:26:00,
2013-05-29 14:30:00,49.2,39.8,29.44,SSW,199,14.0,19.0,70,0.02,,SKC,0.20,104.00,VWS V14.01,2013-05-29 20:30:00,
2013-05-29 14:31:00,45.8,40.3,29.49,South,177,5.0,11.0,81,0.04,,SKC,0.24,197.00,VWS V14.01,2013-05-29 20:31:00,
2013-05-29 14:37:00,46.0,40.5,29.48,SW,232,6.0,12.0,81,0.04,,SKC,0.24,225.00,VWS V14.01,2013-05-29 20:37:00,
2013-05-29 14:43:00,46.2,40.4,29.49,WSW,253,10.0,14.0,80,0.04,,SKC,0.24,79.00,VWS V14.01,2013-05-29 20:43:00,
2013-05-29 14:45:00,47.6,40.1,29.45,SSW,211,17.0,19.0,75,0.01,,SKC,0.20,415.00,VWS V14.01,2013-05-29 20:45:00,
2013-05-29 14:50:00,46.3,40.2,29.49,SSW,203,12.0,12.0,79,0.04,,SKC,0.24,54.00,VWS V14.01,2013-05-29 20:50:00,
2013-05-29 14:56:00,46.3,40.2,29.49,SW,217,10.0,13.0,79,0.04,,SKC,0.24,67.00,VWS V14.01,2013-05-29 20:56:00,
2013-05-29 15:00:00,48.1,39.5,29.45,WSW,246,12.0,22.0,72,0.01,,SKC,0.20,151.00,VWS V14.01,2013-05-29 21:00:00,
2013-05-29 15:01:00,46.3,40.2,29.49,SW,227,5.0,13.0,79,0.04,,SKC,0.24,65.00,VWS V14.01,2013-05-29 21:01:00,
2013-05-29 15:06:00,46.3,40.5,29.49,South,175,3.0,10.0,80,0.04,,SKC,0.24,158.00,VWS V14.01,2013-05-29 21:06:00,
2013-05-29 15:13:00,46.4,41.2,29.49,SSE,150,2.0,10.0,82,0.04,,SKC,0.24,209.00,VWS V14.01,2013-05-29 21:13:00,
2013-05-29 15:15:00,46.4,39.3,29.49,South,180,5.0,18.0,76,0.03,,SKC,0.23,49.00,VWS V14.01,2013-05-29 21:15:00,
2013-05-29 15:19:00,48.2,43.3,29.47,South,182,3.0,7.0,83,0.01,,SKC,0.24,1025.00,VWS V14.01,2013-05-29 21:19:00,
2013-05-29 15:25:00,50.2,42.9,29.45,SSW,203,10.0,12.0,76,0.01,,SKC,0.24,900.00,VWS V14.01,2013-05-29 21:25:00,
2013-05-29 15:30:00,45.8,40.3,29.49,South,177,5.0,11.0,81,0.04,,SKC,0.24,197.00,VWS V14.01,2013-05-29 21:30:00,
2013-05-29 15:31:00,50.6,41.2,29.43,SSW,195,13.0,15.0,70,0.01,,SKC,0.24,251.00,VWS V14.01,2013-05-29 21:31:00,
2013-05-29 15:38:00,50.9,41.5,29.42,SSW,207,10.0,13.0,70,0.00,,SKC,0.24,541.00,VWS V14.01,2013-05-29 21:38:00,
2013-05-29 15:43:00,51.6,41.0,29.42,SW,227,5.0,13.0,67,0.00,,SKC,0.24,294.00,VWS V14.01,2013-05-29 21:43:00,
2013-05-29 15:45:00,46.3,40.5,29.49,SSW,210,10.0,14.0,80,0.04,,SKC,0.24,60.00,VWS V14.01,2013-05-29 21:45:00,
2013-05-29 15:49:00,52.7,43.2,29.42,SW,223,2.0,5.0,70,0.00,,SKC,0.24,893.00,VWS V14.01,2013-05-29 21:49:00,
2013-05-29 15:55:00,53.9,42.0,29.40,SW,229,6.0,10.0,64,0.00,,SKC,0.24,745.00,VWS V14.01,2013-05-29 21:55:00,
2013-05-29 16:00:00,46.3,40.2,29.50,South,177,10.0,13.0,79,0.04,,SKC,0.24,84.00,VWS V14.01,2013-05-29 22:00:00,
2013-05-29 16:01:00,54.1,41.8,29.40,WSW,249,9.0,10.0,63,0.00,,SKC,0.24,202.00,VWS V14.01,2013-05-29 22:01:00,
2013-05-29 16:07:00,53.8,40.7,29.41,SW,234,4.0,14.0,61,0.00,,SKC,0.24,127.00,VWS V14.01,2013-05-29 22:07:00,
2013-05-29 16:13:00,53.5,40.8,29.41,SSW,209,9.0,14.0,62,0.00,,SKC,0.24,227.00,VWS V14.01,2013-05-29 22:13:00,
2013-05-29 16:15:00,46.8,41.9,29.46,SSE,157,3.0,10.0,83,0.04,,SKC,0.24,343.00,VWS V14.01,2013-05-29 22:15:00,
2013-05-29 16:19:00,53.5,42.0,29.41,South,176,2.0,8.0,65,0.00,,SKC,0.24,283.00,VWS V14.01,2013-05-29 22:19:00,
2013-05-29 16:25:00,55.5,44.3,29.38,NNE,26,2.0,8.0,66,0.00,,SKC,0.24,833.00,VWS V14.01,2013-05-29 22:25:00,
2013-05-29 16:30:00,50.6,41.2,29.43,SSW,195,13.0,15.0,70,0.01,,SKC,0.24,251.00,VWS V14.01,2013-05-29 22:30:00,
2013-05-29 16:31:00,55.1,42.8,29.39,North,355,0.0,8.0,63,0.00,,SKC,0.24,352.00,VWS V14.01,2013-05-29 22:31:00,
2013-05-29 16:36:00,55.2,44.8,29.39,North,355,0.0,2.0,68,0.00,,SKC,0.24,592.00,VWS V14.01,2013-05-29 22:36:00,
2013-05-29 16:42:00,55.3,43.8,29.38,North,360,0.0,3.0,65,0.00,,SKC,0.24,341.00,VWS V14.01,2013-05-29 22:42:00,
2013-05-29 16:45:00,52.0,41.4,29.42,SW,227,3.0,13.0,67,0.00,,SKC,0.24,926.00,VWS V14.01,2013-05-29 22:45:00,
2013-05-29 16:48:00,55.3,43.8,29.38,NE,37,0.0,5.0,65,0.00,,SKC,0.24,911.00,VWS V14.01,2013-05-29 22:48:00,
2013-05-29 16:54:00,55.5,43.9,29.38,North,9,3.0,9.0,65,0.00,,SKC,0.24,216.00,VWS V14.01,2013-05-29 22:54:00,
2013-05-29 17:00:00,55.8,43.4,29.38,North,360,0.0,9.0,63,0.00,,SKC,0.24,244.00,VWS V14.01,2013-05-29 23:00:00,
2013-05-29 17:06:00,55.7,44.1,29.38,NE,38,6.0,6.0,65,0.00,,SKC,0.24,218.00,VWS V14.01,2013-05-29 23:06:00,
2013-05-29 17:12:00,55.1,43.2,29.40,NNW,338,0.0,10.0,64,0.00,,SKC,0.24,232.00,VWS V14.01,2013-05-29 23:12:00,
2013-05-29 17:15:00,53.3,42.2,29.41,WSW,244,8.0,14.0,66,0.00,,SKC,0.24,250.00,VWS V14.01,2013-05-29 23:15:00,
2013-05-29 17:18:00,55.1,43.6,29.40,NNE,31,4.0,4.0,65,0.00,,SKC,0.24,323.00,VWS V14.01,2013-05-29 23:18:00,
2013-05-29 17:24:00,55.6,43.6,29.39,NE,38,0.0,6.0,64,0.00,,SKC,0.24,179.00,VWS V14.01,2013-05-29 23:24:00,
2013-05-29 17:30:00,55.5,42.7,29.40,North,10,0.0,6.0,62,0.00,,SKC,0.24,279.00,VWS V14.01,2013-05-29 23:30:00,
2013-05-29 17:36:00,55.8,43.4,29.39,North,5,2.0,5.0,63,0.00,,SKC,0.24,190.00,VWS V14.01,2013-05-29 23:36:00,
2013-05-29 17:42:00,55.6,42.4,29.39,NNE,25,2.0,5.0,61,0.00,,SKC,0.24,214.00,VWS V14.01,2013-05-29 23:42:00,
2013-05-29 17:45:00,55.3,43.3,29.38,NE,55,3.0,10.0,64,0.00,,SKC,0.24,911.00,VWS V14.01,2013-05-29 23:45:00,
2013-05-29 17:48:00,55.3,41.2,29.40,NE,51,3.0,4.0,59,0.00,,SKC,0.24,193.00,VWS V14.01,2013-05-29 23:48:00,
2013-05-29 17:54:00,55.1,41.5,29.40,North,360,5.0,8.0,60,0.00,,SKC,0.24,165.00,VWS V14.01,2013-05-29 23:54:00,
2013-05-29 18:00:00,54.8,42.0,29.40,NNE,18,0.0,8.0,62,0.00,,SKC,0.24,243.00,VWS V14.01,2013-05-30 00:00:00,
2013-05-29 18:07:00,55.5,43.1,29.40,NNE,18,1.0,5.0,63,0.00,,SKC,0.24,499.00,VWS V14.01,2013-05-30 00:07:00,
2013-05-29 18:13:00,55.9,41.3,29.40,NNE,13,0.0,5.0,58,0.00,,SKC,0.24,413.00,VWS V14.01,2013-05-30 00:13:00,
2013-05-29 18:15:00,54.9,43.8,29.40,North,355,3.0,10.0,66,0.00,,SKC,0.24,756.00,VWS V14.01,2013-05-30 00:15:00,
2013-05-29 18:19:00,56.1,42.4,29.40,NNE,12,0.0,5.0,60,0.00,,SKC,0.24,146.00,VWS V14.01,2013-05-30 00:19:00,
2013-05-29 18:25:00,56.2,41.6,29.40,NE,37,3.0,9.0,58,0.00,,SKC,0.24,105.00,VWS V14.01,2013-05-30 00:25:00,
2013-05-29 18:30:00,55.5,42.7,29.40,North,10,2.0,6.0,62,0.00,,SKC,0.24,638.00,VWS V14.01,2013-05-30 00:30:00,
2013-05-29 18:32:00,56.0,42.3,29.41,NNE,16,0.0,9.0,60,0.00,,SKC,0.24,107.00,VWS V14.01,2013-05-30 00:32:00,
2013-05-29 18:38:00,55.8,43.0,29.41,NNE,16,0.0,3.0,62,0.00,,SKC,0.24,105.00,VWS V14.01,2013-05-30 00:38:00,
2013-05-29 18:43:00,55.4,41.8,29.41,NNW,340,2.0,8.0,60,0.00,,SKC,0.24,107.00,VWS V14.01,2013-05-30 00:43:00,
2013-05-29 18:45:00,55.4,42.2,29.39,North,10,1.0,5.0,61,0.00,,SKC,0.24,190.00,VWS V14.01,2013-05-30 00:45:00,
2013-05-29 18:49:00,55.2,42.0,29.42,NW,325,0.0,5.0,61,0.00,,SKC,0.24,104.00,VWS V14.01,2013-05-30 00:49:00,
2013-05-29 18:55:00,55.0,41.8,29.42,NNE,18,4.0,6.0,61,0.00,,SKC,0.24,93.00,VWS V14.01,2013-05-30 00:55:00,
2013-05-29 19:00:00,54.8,42.0,29.40,NNE,18,0.0,8.0,62,0.00,,SKC,0.24,243.00,VWS V14.01,2013-05-30 01:00:00,
2013-05-29 19:01:00,54.4,41.2,29.44,North,349,4.0,7.0,61,0.00,,SKC,0.24,83.00,VWS V14.01,2013-05-30 01:01:00,
2013-05-29 19:06:00,54.1,41.8,29.42,NW,317,3.0,4.0,63,0.00,,SKC,0.24,79.00,VWS V14.01,2013-05-30 01:06:00,
2013-05-29 19:11:00,53.9,41.6,29.42,NNW,343,0.0,5.0,63,0.00,,SKC,0.24,54.00,VWS V14.01,2013-05-30 01:11:00,
2013-05-29 19:15:00,56.0,42.3,29.40,NNE,12,2.0,5.0,60,0.00,,SKC,0.24,468.00,VWS V14.01,2013-05-30 01:15:00,
2013-05-29 19:18:00,53.6,41.7,29.42,NNW,338,0.0,1.0,64,0.00,,SKC,0.24,37.00,VWS V14.01,2013-05-30 01:18:00,
2013-05-29 19:24:00,53.3,41.8,29.44,NNW,338,0.0,1.0,65,0.00,,SKC,0.24,49.00,VWS V14.01,2013-05-30 01:24:00,
2013-05-29 19:30:00,52.9,41.1,29.44,NNW,338,0.0,1.0,64,0.00,,SKC,0.24,70.00,VWS V14.01,2013-05-30 01:30:00,
2013-05-29 19:37:00,52.7,42.5,29.44,NNW,338,0.0,3.0,68,0.00,,SKC,0.24,74.00,VWS V14.01,2013-05-30 01:37:00,
2013-05-29 19:42:00,52.4,42.5,29.44,NNW,338,1.0,3.0,69,0.00,,SKC,0.24,40.00,VWS V14.01,2013-05-30 01:42:00,
2013-05-29 19:45:00,55.3,41.7,29.42,NNW,330,5.0,8.0,60,0.00,,SKC,0.24,118.00,VWS V14.01,2013-05-30 01:45:00,
2013-05-29 19:48:00,52.1,43.7,29.44,NNW,338,0.0,2.0,73,0.00,,SKC,0.24,23.00,VWS V14.01,2013-05-30 01:48:00,
2013-05-29 19:54:00,51.7,42.6,29.45,NNW,338,4.0,4.0,71,0.00,,SKC,0.24,16.00,VWS V14.01,2013-05-30 01:54:00,
2013-05-29 19:59:00,51.0,40.8,29.46,NNW,343,2.0,7.0,68,0.00,,SKC,0.24,12.00,VWS V14.01,2013-05-30 01:59:00,
2013-05-29 20:00:00,54.4,41.2,29.44,NNW,342,3.0,7.0,61,0.00,,SKC,0.24,81.00,VWS V14.01,2013-05-30 02:00:00,
2013-05-29 20:04:00,50.5,40.3,29.46,NW,313,2.0,5.0,68,0.00,,SKC,0.24,12.00,VWS V14.01,2013-05-30 02:04:00,
2013-05-29 20:09:00,50.1,39.6,29.48,NNW,339,0.0,7.0,67,0.00,,SKC,0.24,11.00,VWS V14.01,2013-05-30 02:09:00,
2013-05-29 20:15:00,49.7,39.2,29.48,NNW,344,2.0,7.0,67,0.00,,SKC,0.24,9.00,VWS V14.01,2013-05-30 02:15:00,
2013-05-29 20:21:00,49.2,38.0,29.48,NE,38,5.0,9.0,65,0.00,,SKC,0.24,5.00,VWS V14.01,2013-05-30 02:21:00,
2013-05-29 20:27:00,49.0,38.2,29.48,NNE,13,1.0,9.0,66,0.00,,SKC,0.24,0.00,VWS V14.01,2013-05-30 02:27:00,
2013-05-29 20:30:00,52.9,41.5,29.44,NNW,338,0.0,1.0,65,0.00,,SKC,0.24,74.00,VWS V14.01,2013-05-30 02:30:00,
2013-05-29 20:33:00,48.8,38.3,29.48,North,355,2.0,2.0,67,0.00,,SKC,0.24,0.00,VWS V14.01,2013-05-30 02:33:00,
2013-05-29 20:40:00,48.4,38.3,29.48,WNW,299,3.0,3.0,68,0.00,,SKC,0.24,0.00,VWS V14.01,2013-05-30 02:40:00,
2013-05-29 20:45:00,52.2,43.5,29.44,NNW,338,2.0,3.0,72,0.00,,SKC,0.24,28.00,VWS V14.01,2013-05-30 02:45:00,
2013-05-29 20:46:00,48.1,38.0,29.50,NW,309,0.0,3.0,68,0.00,,SKC,0.24,0.00,VWS V14.01,2013-05-30 02:46:00,
2013-05-29 20:52:00,47.9,38.2,29.51,NW,309,2.0,2.0,69,0.00,,SKC,0.24,0.00,VWS V14.01,2013-05-30 02:52:00,
2013-05-29 20:57:00,47.4,38.5,29.51,NW,304,0.0,2.0,71,0.00,,SKC,0.24,0.00,VWS V14.01,2013-05-30 02:57:00,
2013-05-29 21:00:00,50.8,40.6,29.45,NNW,334,3.0,7.0,68,0.00,,SKC,0.24,12.00,VWS V14.01,2013-05-30 03:00:00,
2013-05-29 21:03:00,47.2,38.7,29.52,WNW,296,2.0,3.0,72,0.00,,SKC,0.24,0.00,VWS V14.01,2013-05-30 03:03:00,
2013-05-29 21:10:00,46.8,38.6,29.52,WNW,296,0.0,3.0,73,0.00,,SKC,0.24,0.00,VWS V14.01,2013-05-30 03:10:00,
2013-05-29 21:15:00,49.5,38.2,29.48,NNW,344,4.0,7.0,65,0.00,,SKC,0.24,7.00,VWS V14.01,2013-05-30 03:15:00,
2013-05-29 21:16:00,46.3,38.8,29.53,SSW,201,4.0,4.0,75,0.00,,SKC,0.24,0.00,VWS V14.01,2013-05-30 03:16:00,
2013-05-29 21:22:00,45.7,38.2,29.53,SSW,200,0.0,5.0,75,0.00,,SKC,0.24,0.00,VWS V14.01,2013-05-30 03:22:00,
2013-05-29 21:27:00,45.3,38.2,29.54,SSW,201,0.0,5.0,76,0.00,,SKC,0.24,0.00,VWS V14.01,2013-05-30 03:27:00,
2013-05-29 21:30:00,48.8,38.3,29.48,North,360,2.0,9.0,67,0.00,,SKC,0.24,0.00,VWS V14.01,2013-05-30 03:30:00,
2013-05-29 21:34:00,44.8,37.7,29.55,SSW,202,1.0,5.0,76,0.00,,SKC,0.24,0.00,VWS V14.01,2013-05-30 03:34:00,
2013-05-29 21:40:00,44.3,37.6,29.55,SSW,202,2.0,5.0,77,0.00,,SKC,0.24,0.00,VWS V14.01,2013-05-30 03:40:00,
2013-05-29 21:45:00,43.9,37.8,29.55,SSW,202,3.0,5.0,79,0.00,,SKC,0.24,0.00,VWS V14.01,2013-05-30 03:45:00,
2013-05-29 21:50:00,43.6,37.5,29.55,SSW,209,2.0,5.0,79,0.00,,SKC,0.24,0.00,VWS V14.01,2013-05-30 03:50:00,
2013-05-29 21:57:00,43.3,37.6,29.56,SSW,209,1.0,5.0,80,0.00,,SKC,0.24,0.00,VWS V14.01,2013-05-30 03:57:00,
2013-05-29 22:00:00,47.3,39.1,29.52,WNW,296,1.0,2.0,73,0.00,,SKC,0.24,0.00,VWS V14.01,2013-05-30 04:00:00,
2013-05-29 22:01:00,43.1,37.4,29.56,SSW,209,0.0,5.0,80,0.00,,SKC,0.24,0.00,VWS V14.01,2013-05-30 04:01:00,
2013-05-29 22:05:00,43.0,37.3,29.54,East,87,2.0,5.0,80,0.00,,SKC,0.24,0.00,VWS V14.01,2013-05-30 04:05:00,
2013-05-29 22:09:00,42.9,37.5,29.54,South,178,0.0,5.0,81,0.00,,SKC,0.24,0.00,VWS V14.01,2013-05-30 04:09:00,
2013-05-29 22:11:00,42.9,37.5,29.55,ENE,60,2.0,5.0,81,0.00,,SKC,0.24,0.00,VWS V14.01,2013-05-30 04:11:00,
2013-05-29 22:12:00,42.8,37.4,29.55,NE,47,1.0,5.0,81,0.00,,SKC,0.24,0.00,VWS V14.01,2013-05-30 04:12:00,
2013-05-29 22:15:00,46.3,38.8,29.53,SSW,201,4.0,4.0,75,0.00,,SKC,0.24,0.00,VWS V14.01,2013-05-30 04:15:00,
2013-05-29 22:17:00,42.7,37.6,29.56,NE,47,0.0,1.0,82,0.00,,SKC,0.24,0.00,VWS V14.01,2013-05-30 04:17:00,
2013-05-29 22:23:00,42.5,37.7,29.57,NE,47,2.0,2.0,83,0.00,,SKC,0.24,0.00,VWS V14.01,2013-05-30 04:23:00,
2013-05-29 22:29:00,42.4,37.6,29.57,NE,47,1.0,2.0,83,0.00,,SKC,0.24,0.00,VWS V14.01,2013-05-30 04:29:00,
2013-05-29 22:30:00,45.0,37.9,29.55,SSW,202,5.0,5.0,76,0.00,,SKC,0.24,0.00,VWS V14.01,2013-05-30 04:30:00,
2013-05-29 22:35:00,42.3,37.5,29.57,NE,47,0.0,0.0,83,0.00,,SKC,0.24,0.00,VWS V14.01,2013-05-30 04:35:00,
2013-05-29 22:42:00,42.2,37.7,29.57,NE,46,0.0,1.0,84,0.00,,SKC,0.24,0.00,VWS V14.01,2013-05-30 04:42:00,
2013-05-29 22:45:00,43.8,37.7,29.55,SSW,202,3.0,5.0,79,0.00,,SKC,0.24,0.00,VWS V14.01,2013-05-30 04:45:00,
2013-05-29 22:48:00,42.2,37.7,29.57,SE,141,1.0,3.0,84,0.00,,SKC,0.24,0.00,VWS V14.01,2013-05-30 04:48:00,
2013-05-29 22:54:00,42.1,37.9,29.57,SSE,150,4.0,4.0,85,0.00,,SKC,0.24,0.00,VWS V14.01,2013-05-30 04:54:00,
2013-05-29 22:59:00,42.1,37.6,29.57,SSW,205,6.0,9.0,84,0.00,,SKC,0.24,0.00,VWS V14.01,2013-05-30 04:59:00,
2013-05-29 23:00:00,43.1,37.4,29.56,SSW,209,0.0,5.0,80,0.00,,SKC,0.24,0.00,VWS V14.01,2013-05-30 05:00:00,
2013-05-29 23:06:00,42.4,37.6,29.56,SW,217,4.0,5.0,83,0.00,,SKC,0.24,0.00,VWS V14.01,2013-05-30 05:06:00,
2013-05-29 23:11:00,42.5,37.4,29.54,SSW,211,4.0,5.0,82,0.00,,SKC,0.24,0.00,VWS V14.01,2013-05-30 05:11:00,
2013-05-29 23:15:00,42.7,37.6,29.56,NE,47,0.0,5.0,82,0.00,,SKC,0.24,0.00,VWS V14.01,2013-05-30 05:15:00,
2013-05-29 23:16:00,42.7,37.6,29.54,South,180,4.0,5.0,82,0.00,,SKC,0.24,0.00,VWS V14.01,2013-05-30 05:16:00,
2013-05-29 23:23:00,42.7,37.3,29.53,SSE,167,3.0,5.0,81,0.00,,SKC,0.24,0.00,VWS V14.01,2013-05-30 05:23:00,
2013-05-29 23:29:00,42.8,37.4,29.53,SSE,167,1.0,5.0,81,0.00,,SKC,0.24,0.00,VWS V14.01,2013-05-30 05:29:00,
2013-05-29 23:30:00,42.4,37.6,29.57,NE,47,0.0,2.0,83,0.00,,SKC,0.24,0.00,VWS V14.01,2013-05-30 05:30:00,
2013-05-29 23:34:00,42.8,37.4,29.53,SSE,168,2.0,2.0,81,0.00,,SKC,0.24,0.00,VWS V14.01,2013-05-30 05:34:00,
2013-05-29 23:41:00,42.8,37.4,29.53,SSE,168,0.0,2.0,81,0.00,,SKC,0.24,0.00,VWS V14.01,2013-05-30 05:41:00,
2013-05-29 23:45:00,42.2,37.7,29.57,SE,141,1.0,3.0,84,0.00,,SKC,0.24,0.00,VWS V14.01,2013-05-30 05:45:00,
2013-05-29 23:47:00,42.8,37.4,29.53,SSE,168,0.0,2.0,81,0.00,,SKC,0.24,0.00,VWS V14.01,2013-05-30 05:47:00,
2013-05-29 23:52:00,42.7,37.3,29.53,SSE,168,1.0,3.0,81,0.00,,SKC,0.24,0.00,VWS V14.01,2013-05-30 05:52:00,
2013-05-29 23:58:00,42.6,37.5,29.53,SSE,168,0.0,3.0,82,0.00,,SKC,0.24,0.00,VWS V14.01,2013-05-30 05:58:00,